Showing default

USA 270, 41744

Orbit data source: Space-Track

USA 270, 41744 is a payload satellite owned by USAF AFSPC (US) in GEO that was launched on Fri, 19 Aug 2016 UTC via a DELTA 4M+(4,2) launch vehicle from the Air Force Eastern Test Range (AFETR). Payload-class satellites include a variety of spacecraft equipped with specific instruments for various scientific and technological missions. These include communications satellites like Starlink; space stations such as the ISS; scientific satellites like the Hubble; Earth observation satellites from companies like Planet Labs, Umbra, and HawkEye 360; GPS; miniature CubeSats for education and research; and military/defense satellites.

Not visible in the next 10 days
Identifier
41744, 2016-052A
Orbit
GEO
Country
Flag of USUS
Related business
Manufacturer
OATK SSG
Mission
Operational Defense Classified
Bus & Motor
GEOSTAR-1, AOCS
Mass
500 kg wet, 500 kg dry
Launch date (UTC)
2016-08-19 (9 years ago)
Launch vehicle
DELTA 4M+(4,2)
Launch site
Air Force Eastern Test Range (AFETR)
Object type
Payload
Rocket body
Debris
Shape & HBR
Box + 2 Pan, 2.5 m
Radar Cross Section
7.621 m²

Expand to show TLE details & history
Last TLE update: 4 days ago

TLE from 4 days ago
0 USA 270
1 41744U 16052A   25337.74193301 -.00000169  00000-0  00000+0 0  9998
2 41744   3.6959  79.6967 0001198 252.9600 157.7385  1.00332154 26172
Epoch: 2025-12-03T17:48Z
TLE epoch observation values (Epoch: 2025-12-03T17:48:23.012Z)
Latitude
2.86912°
Longitude
150.41892°
Altitude
35,773.502 km
Speed
3.075 km/s
True Right ascension
08h 41m 17s
True Declination
2° 51' 58"
Sunlit
Object was in daylight at epoch
Visualization orbit readout
Latitude
Unknown
Longitude
Unknown
Altitude
Unknown
Speed
Unknown
Apparent Right ascension
Unknown
Apparent Declination
Unknown
Sunlit
N/A
Visualization observer readout
Local Sidereal Time
08:38:23
Azimuth
Unknown
Elevation
Unknown
Doppler factor
Unknown
Orbital elements
Apogee altitude
35,775.794 km
Perigee altitude
35,765.695 km
Semi-major axis
42,148.881 km
Eccentricity
0.00012
Inclination
3.6959°
RAAN
79.6967°
Arg. of periapsis
252.96°
True anomaly
157.7437°
Mean anomaly
157.7385°
Eccentric anomaly
157.7411°
Mean motion
0.25082 °/min
Orbital period
1,435.29 mins
BSTAR
0
Loading maneuver chart data...
Computing Atmospheric mass density...
Loading historical data...
Loading historical data...
Loading historical data...
Loading historical data...
Loading historical data...
Loading historical data...
Loading historical data...
Other satellites on launch #52 in the year 2016 (2016-08-19 UTC)

Documentation

Showing up to 5 results
|